[[{"header":{"parameterUnit":"m.s-1","parameterCategory":1,"la1":30.2991,"la2":30.254,"lo1":-89.0895,"lo2":-89.0444,"dy":0.0017,"dx":0.0017,"nx":28,"ny":28,"refTime":"2025-09-11T21:00:00:Z","depth":0,"parameterNumber":2,"parameterNumberName":"U-component_of_WINDS"},"data":[0,0,0,0,0,0,0,0,0,0,0,0,0,0,0,0,0,0,0,0,0,0,0,0,0,0,0,0,0,0,0,0,0,0,0,0,0,0,0,0,0,0,0,0,0,0,0,0,0,0,0,0,0,0,0,0,0,0,-1.4079,-1.4079,0,-1.4124,-1.4125,-1.4125,-1.4058,-1.4056,-1.4053,-1.4051,-1.41,-1.4103,-1.4106,0,0,0,0,0,0,0,0,0,0,0,0,0,-1.3935,-1.3938,-1.4079,-1.4079,-1.408,-1.4124,-1.4125,-1.4125,-1.4059,-1.4056,-1.4053,-1.405,-1.4098,-1.4102,-1.4107,0,0,0,0,0,0,0,0,0,0,0,0,0,-1.3991,-1.3939,-1.4079,-1.4052,-1.405,-1.4124,-1.4125,-1.4126,-1.4059,-1.4056,-1.4052,-1.4049,-1.4097,-1.4102,-1.4107,-1.4211,0,0,-1.4123,-1.4126,0,0,0,0,0,0,0,0,-1.3987,-1.3996,-1.4055,-1.4054,-1.4052,-1.4082,-1.4092,-1.4154,-1.406,-1.4056,-1.4051,-1.4047,-1.4097,-1.4102,-1.4118,-1.4213,-1.4215,-1.4124,-1.4127,-1.4129,-1.4131,0,0,0,0,0,0,0,-1.3984,-1.3994,-1.4097,-1.4056,-1.4054,-1.4038,-1.4042,-1.4103,-1.4096,-1.4056,-1.4051,-1.4057,-1.4095,-1.4113,-1.4119,-1.4216,-1.4124,-1.4128,-1.4131,-1.4133,-1.4397,-1.4401,0,0,0,0,0,0,-1.3983,-1.3991,-1.4095,-1.4098,-1.401,-1.4043,-1.4048,-1.4076,-1.4095,-1.4094,-1.406,-1.4054,-1.4106,-1.4113,-1.412,-1.4243,-1.4129,-1.4134,-1.4137,-1.4394,-1.4398,-1.4402,0,0,0,0,0,0,-1.398,-1.3993,-1.4093,-1.4043,-1.4055,-1.4049,-1.4082,-1.4079,-1.4097,-1.4098,-1.4096,-1.408,-1.4103,-1.4113,-1.4188,-1.4243,-1.4136,-1.4141,-1.4389,-1.4395,-1.44,-1.4488,0,0,0,0,0,0,-1.3976,-1.3992,-1.4031,-1.4045,-1.4058,-1.4161,-1.4085,-1.4082,-1.4106,-1.4098,-1.4116,-1.4116,-1.4101,-1.4181,-1.4194,-1.4249,-1.4145,-1.4384,-1.4392,-1.4399,-1.448,-1.4496,-1.451,0,0,0,0,0,-1.3971,-1.4054,-1.4034,-1.4046,-1.4106,-1.4164,-1.4172,-1.4153,-1.411,-1.415,-1.415,-1.4115,-1.4235,-1.4189,-1.4203,-1.426,-1.4381,-1.439,-1.4398,-1.4474,-1.4493,-1.451,0,0,0,0,0,0,-1.4048,-1.4056,-1.4033,-1.4122,-1.4143,-1.4153,-1.4202,-1.4174,-1.4208,-1.4199,-1.4175,-1.4179,-1.4261,-1.4268,-1.4217,-1.4361,-1.4301,-1.4313,-1.4354,-1.4372,-1.4387,-1.4384,-1.415,0,0,0,0,0,-1.4075,-1.4122,-1.4126,-1.4205,-1.4216,-1.4207,-1.4232,-1.4216,-1.4236,-1.4245,-1.4251,-1.4273,-1.4315,-1.4344,-1.4383,-1.4481,-1.4484,-1.4527,-1.4542,-1.4554,-1.4565,-1.4617,-1.4636,-1.4431,-1.4431,-1.4431,0,0,-1.4133,-1.4142,-1.4173,-1.422,-1.4234,-1.4283,-1.4215,-1.427,-1.4306,-1.4253,-1.4325,-1.4331,-1.4353,-1.4441,-1.4479,-1.4449,-1.4622,-1.4565,-1.4575,-1.4579,-1.4628,-1.4647,-1.4665,-1.4437,-1.4436,-1.4435,0,0,-1.4262,-1.4273,-1.434,-1.4356,-1.4378,-1.4372,-1.4388,-1.4402,-1.4403,-1.4475,-1.4436,-1.4479,-1.4553,-1.4571,-1.4589,-1.4725,-1.4694,-1.4738,-1.4816,-1.4867,-1.4883,-1.4898,-1.4947,-1.4964,-1.4749,-1.4749,-1.4749,0,-1.433,-1.4401,-1.4379,-1.4436,-1.4458,-1.4412,-1.448,-1.4496,-1.4531,-1.4547,-1.4512,-1.4604,-1.4616,-1.4707,-1.474,-1.4756,-1.4774,-1.4737,-1.4883,-1.4897,-1.491,-1.4956,-1.4975,-1.4754,-1.4754,-1.4753,-1.4753,0,-1.4485,-1.4535,-1.4586,-1.462,-1.4648,-1.471,-1.4697,-1.4728,-1.471,-1.4707,-1.4781,-1.4793,-1.4834,-1.4854,-1.4837,-1.4943,-1.4924,-1.4887,-1.4825,-1.4935,-1.4978,-1.4996,-1.4762,-1.476,-1.4759,-1.4757,0,0,-1.4664,-1.4684,-1.4703,-1.4718,-1.4739,-1.4778,-1.4838,-1.4878,-1.4905,-1.493,-1.498,-1.5044,-1.5009,-1.503,-1.5014,-1.5059,-1.5167,-1.5016,-1.5017,-1.5044,-1.5285,-1.5314,-1.5334,-1.5146,-1.5149,-1.5152,-1.5283,0,-1.4793,-1.4897,-1.4878,-1.498,-1.5026,-1.4983,-1.5036,-1.5054,-1.5054,-1.5093,-1.5092,-1.5137,-1.5088,-1.5101,-1.5143,-1.5145,-1.5215,-1.5135,-1.5193,-1.5195,-1.5189,-1.5357,-1.5387,-1.5511,-1.53,-1.5303,-1.5305,0,-1.4958,-1.4988,-1.5095,-1.5108,-1.5127,-1.5175,-1.5209,-1.5248,-1.5268,-1.5264,-1.5288,-1.5263,-1.5324,-1.5261,-1.5345,-1.5291,-1.5313,-1.5317,-1.5322,-1.5327,-1.5257,-1.5367,-1.555,-1.5569,-1.5331,-1.5329,-1.5327,0,-1.5078,-1.5146,-1.5219,-1.5233,-1.525,-1.5285,-1.5294,-1.5311,-1.5336,-1.5366,-1.5382,-1.542,-1.5441,-1.547,-1.5456,-1.5412,-1.5543,-1.5479,-1.5542,-1.5542,-1.5572,-1.557,-1.5761,-1.5585,-1.5585,-1.5585,-1.5584,0,-1.5225,-1.5292,-1.5273,-1.5318,-1.5391,-1.5369,-1.5443,-1.5447,-1.5462,-1.5507,-1.5472,-1.5515,-1.5493,-1.5535,-1.5524,-1.5595,-1.5605,-1.5604,-1.56,-1.5607,-1.5608,-1.5622,-1.5614,-1.559,-1.5589,-1.5588,-1.5587,0,-1.5373,-1.5363,-1.5439,-1.5449,-1.5453,-1.5507,-1.5516,-1.5558,-1.5554,-1.5611,-1.5624,-1.5618,-1.5665,-1.5654,-1.5705,-1.5698,-1.5788,-1.5773,-1.5781,-1.5778,-1.5841,-1.5836,-1.6049,-1.6076,-1.5882,-1.5884,-1.5886,0,-1.5467,-1.5517,-1.5533,-1.556,-1.5572,-1.5617,-1.5642,-1.5622,-1.565,-1.5677,-1.5716,-1.5759,-1.5793,-1.5871,-1.5871,-1.591,-1.5897,-1.5969,-1.5903,-1.5908,-1.5899,-1.5896,-1.5901,-1.5982,-1.5985,-1.5986,-1.5988,0,-1.5636,-1.5628,-1.5666,-1.5703,-1.5734,-1.5761,-1.5786,-1.581,-1.5792,-1.5825,-1.5873,-1.5899,-1.5951,-1.5996,-1.6032,-1.6041,-1.6012,-1.6009,-1.6025,-1.6033,-1.6036,-1.6036,-1.5817,-1.6004,-1.6002,-1.6001,-1.6,-1.6,-1.576,-1.5803,-1.582,-1.5864,-1.588,-1.5904,-1.5943,-1.5945,-1.5984,-1.6025,-1.601,-1.6065,-1.6084,-1.6129,-1.6143,-1.6186,-1.6159,-1.6183,-1.6189,-1.6195,-1.6203,-1.6029,-1.6192,-1.6192,-1.6191,-1.6191,-1.619,0,-1.5927,-1.5936,-1.5976,-1.6011,-1.6046,-1.6015,-1.604,-1.6071,-1.6119,-1.6139,-1.6173,-1.6228,-1.6271,-1.6275,-1.6315,-1.6348,-1.6336,-1.6359,-1.6357,-1.6359,-1.6225,-1.6207,-1.6368,-1.6368,-1.6368,-1.6368,-1.6368,-1.6368,-1.6018,-1.6089,-1.6084,-1.6163,-1.6171,-1.6224,-1.6241,-1.6263,-1.6279,-1.6342,-1.6377,-1.6379,-1.6393,-1.6433,-1.6471,-1.6471,-1.6488,-1.6517,-1.6512,-1.6387,-1.6369,-1.6352,-1.6335,-1.652,-1.6521,-1.6643,-1.6644,-1.6645]},{"header":{"parameterUnit":"m.s-1","parameterCategory":1,"la1":30.2991,"la2":30.254,"lo1":-89.0895,"lo2":-89.0444,"dy":0.0017,"dx":0.0017,"nx":28,"ny":28,"refTime":"2025-09-11T21:00:00:Z","depth":0,"parameterNumber":3,"parameterNumberName":"V-component_of_WINDS"},"data":[0,0,0,0,0,0,0,0,0,0,0,0,0,0,0,0,0,0,0,0,0,0,0,0,0,0,0,0,0,0,0,0,0,0,0,0,0,0,0,0,0,0,0,0,0,0,0,0,0,0,0,0,0,0,0,0,0,0,-2.796,-2.796,0,-2.7993,-2.7994,-2.7994,-2.7956,-2.7954,-2.7953,-2.7952,-2.7983,-2.7985,-2.7987,0,0,0,0,0,0,0,0,0,0,0,0,0,-2.7858,-2.786,-2.796,-2.796,-2.7961,-2.7993,-2.7994,-2.7994,-2.7956,-2.7954,-2.7952,-2.7951,-2.7982,-2.7985,-2.7987,0,0,0,0,0,0,0,0,0,0,0,0,0,-2.7898,-2.7861,-2.796,-2.7945,-2.7944,-2.7993,-2.7994,-2.7994,-2.7956,-2.7954,-2.7952,-2.795,-2.7981,-2.7985,-2.7988,-2.8051,0,0,-2.7998,-2.7999,0,0,0,0,0,0,0,0,-2.7896,-2.7902,-2.7947,-2.7946,-2.7946,-2.7968,-2.797,-2.8013,-2.7957,-2.7952,-2.7951,-2.7949,-2.798,-2.7983,-2.7994,-2.8053,-2.8054,-2.7998,-2.8,-2.8001,-2.8002,0,0,0,0,0,0,0,-2.7893,-2.79,-2.7973,-2.7948,-2.7947,-2.7936,-2.7939,-2.7978,-2.7977,-2.7952,-2.7949,-2.7954,-2.7979,-2.7991,-2.7994,-2.8055,-2.7998,-2.8001,-2.8003,-2.8004,-2.8166,-2.8168,0,0,0,0,0,0,-2.7892,-2.7898,-2.7972,-2.7974,-2.7915,-2.794,-2.7943,-2.7963,-2.7977,-2.7977,-2.7956,-2.7952,-2.7986,-2.7991,-2.7995,-2.807,-2.8001,-2.8005,-2.8006,-2.8164,-2.8166,-2.8169,0,0,0,0,0,0,-2.789,-2.7899,-2.797,-2.7935,-2.7944,-2.7944,-2.7966,-2.7965,-2.7977,-2.798,-2.7979,-2.7969,-2.7985,-2.7991,-2.8038,-2.807,-2.8006,-2.8009,-2.8161,-2.8164,-2.8168,-2.822,0,0,0,0,0,0,-2.7888,-2.7899,-2.7924,-2.7936,-2.7946,-2.8014,-2.7968,-2.7967,-2.7983,-2.7979,-2.7991,-2.7991,-2.7984,-2.8033,-2.8041,-2.8074,-2.8012,-2.8158,-2.8162,-2.8167,-2.8215,-2.8225,-2.8233,0,0,0,0,0,-2.7884,-2.7937,-2.7925,-2.7935,-2.7977,-2.8015,-2.8021,-2.8011,-2.7986,-2.801,-2.8012,-2.7991,-2.8066,-2.8038,-2.8047,-2.8081,-2.8156,-2.8161,-2.8166,-2.8211,-2.8223,-2.8232,0,0,0,0,0,0,-2.7927,-2.7938,-2.7926,-2.7984,-2.7999,-2.8009,-2.804,-2.8024,-2.8046,-2.8041,-2.8027,-2.803,-2.808,-2.8085,-2.8054,-2.8142,-2.8106,-2.8113,-2.8137,-2.8148,-2.8157,-2.8155,-2.8014,0,0,0,0,0,-2.7944,-2.7975,-2.7982,-2.8033,-2.8042,-2.804,-2.8056,-2.8047,-2.8062,-2.8068,-2.8073,-2.8087,-2.8114,-2.8131,-2.8156,-2.8216,-2.8217,-2.8243,-2.8252,-2.8259,-2.8266,-2.8297,-2.8308,-2.8186,-2.8186,-2.8186,0,0,-2.7978,-2.7988,-2.8008,-2.8042,-2.8053,-2.8085,-2.8045,-2.808,-2.8103,-2.8073,-2.8118,-2.8122,-2.8137,-2.819,-2.8214,-2.8196,-2.83,-2.8266,-2.8272,-2.8274,-2.8303,-2.8315,-2.8325,-2.819,-2.8189,-2.8188,0,0,-2.8056,-2.8067,-2.811,-2.8122,-2.8139,-2.8137,-2.8148,-2.816,-2.8162,-2.8207,-2.8184,-2.8211,-2.8257,-2.8268,-2.828,-2.8362,-2.8343,-2.837,-2.8416,-2.8446,-2.8456,-2.8464,-2.8493,-2.8503,-2.8376,-2.8377,-2.8377,0,-2.8096,-2.8144,-2.8134,-2.8171,-2.8186,-2.8161,-2.8204,-2.8215,-2.8239,-2.825,-2.8229,-2.8286,-2.8295,-2.835,-2.837,-2.8381,-2.8391,-2.8368,-2.8456,-2.8464,-2.8472,-2.8499,-2.8509,-2.838,-2.8379,-2.8379,-2.8379,0,-2.8191,-2.8225,-2.8257,-2.8282,-2.8301,-2.8341,-2.8336,-2.8355,-2.8345,-2.8345,-2.8391,-2.84,-2.8425,-2.8438,-2.8428,-2.8492,-2.848,-2.8458,-2.8421,-2.8487,-2.8512,-2.8522,-2.8384,-2.8383,-2.8382,-2.8381,0,0,-2.8297,-2.8316,-2.8328,-2.8339,-2.8356,-2.8381,-2.8419,-2.8445,-2.8462,-2.8479,-2.851,-2.8549,-2.8529,-2.8542,-2.8533,-2.856,-2.8623,-2.8535,-2.8535,-2.855,-2.8693,-2.8709,-2.8721,-2.8611,-2.8613,-2.8615,-2.8691,0,-2.8375,-2.8442,-2.8434,-2.8498,-2.8528,-2.8505,-2.8537,-2.8551,-2.8552,-2.8576,-2.8576,-2.8605,-2.8576,-2.8584,-2.8609,-2.8611,-2.8652,-2.8605,-2.8639,-2.864,-2.8635,-2.8734,-2.8752,-2.8824,-2.8701,-2.8703,-2.8704,0,-2.8475,-2.8497,-2.8564,-2.8575,-2.8588,-2.8618,-2.864,-2.8665,-2.8679,-2.8677,-2.8693,-2.8679,-2.8715,-2.8678,-2.8728,-2.8696,-2.871,-2.8712,-2.8715,-2.8717,-2.8676,-2.8739,-2.8846,-2.8857,-2.872,-2.8718,-2.8717,0,-2.8545,-2.8591,-2.8636,-2.8646,-2.8661,-2.8683,-2.869,-2.8702,-2.8718,-2.8737,-2.8747,-2.8771,-2.8783,-2.8801,-2.8793,-2.8767,-2.8844,-2.8807,-2.8843,-2.8843,-2.886,-2.8859,-2.8971,-2.887,-2.8869,-2.8869,-2.8869,0,-2.8632,-2.8674,-2.8668,-2.8696,-2.8742,-2.8732,-2.8776,-2.878,-2.8791,-2.8819,-2.8799,-2.8825,-2.8814,-2.8839,-2.8833,-2.8875,-2.8881,-2.888,-2.8877,-2.8881,-2.8881,-2.8889,-2.8884,-2.8872,-2.8871,-2.8871,-2.887,0,-2.8718,-2.8716,-2.8764,-2.8774,-2.8778,-2.8811,-2.8819,-2.8845,-2.8844,-2.8879,-2.8887,-2.8885,-2.8913,-2.8908,-2.8939,-2.8934,-2.8986,-2.8978,-2.8982,-2.898,-2.9016,-2.9013,-2.9137,-2.9152,-2.9042,-2.9043,-2.9044,0,-2.8773,-2.8805,-2.8819,-2.8837,-2.8846,-2.8874,-2.889,-2.8881,-2.8899,-2.8917,-2.894,-2.8967,-2.8988,-2.9034,-2.9035,-2.9058,-2.905,-2.9091,-2.9053,-2.9055,-2.9049,-2.9047,-2.905,-2.9099,-2.91,-2.9101,-2.9102,0,-2.8872,-2.887,-2.8895,-2.8919,-2.8939,-2.8958,-2.8975,-2.899,-2.8982,-2.9002,-2.9032,-2.9048,-2.9079,-2.9106,-2.9127,-2.9133,-2.9116,-2.9114,-2.9124,-2.9128,-2.9128,-2.9128,-2.9002,-2.9111,-2.911,-2.911,-2.9109,-2.9109,-2.8944,-2.8971,-2.8985,-2.9013,-2.9025,-2.9041,-2.9065,-2.9068,-2.9092,-2.9118,-2.9111,-2.9144,-2.9156,-2.9183,-2.9191,-2.9216,-2.92,-2.9214,-2.9218,-2.9221,-2.9225,-2.9125,-2.922,-2.922,-2.9219,-2.9219,-2.9219,0,-2.9041,-2.9049,-2.9075,-2.9099,-2.9121,-2.9105,-2.9122,-2.9141,-2.917,-2.9184,-2.9205,-2.9238,-2.9263,-2.9266,-2.929,-2.9309,-2.9302,-2.9315,-2.9313,-2.9315,-2.9238,-2.9228,-2.9321,-2.9321,-2.9321,-2.9321,-2.9321,-2.9321,-2.9094,-2.9138,-2.9137,-2.9187,-2.9194,-2.9227,-2.9238,-2.9252,-2.9263,-2.9301,-2.9322,-2.9324,-2.9333,-2.9357,-2.9379,-2.9379,-2.9388,-2.9405,-2.9402,-2.933,-2.932,-2.9311,-2.93,-2.9407,-2.9407,-2.9476,-2.9477,-2.9478]}]]